Location: Burbank
(38.7788°N, 114.0429°W)
Time: 03:21:05
(UTC+00:00)

Transit 2A Rocket - Pass Details

Date: 15 May 2026
Orbit: 589 x 893 km, 66.7° (Epoch: 9 June)

Event Time Altitude Azimuth Distance (km) Brightness Sun altitude
Rises 11:13:59 0° 335° (NNW) 2,971 8.2 -12.5°
Reaches altitude 10° 11:16:23 10° 339° (NNW) 2,018 7.4 -12.1°
Maximum altitude 11:20:49 56° 59° (ENE) 720 5.3 -11.4°
Drops below altitude 10° 11:25:01 10° 138° (SE) 1,915 7.2 -10.7°
Sets 11:27:15 0° 142° (SE) 2,805 8.0 -10.4°
